Marrakech, Morocco

10:35 PM WET on November 18, 2017 (GMT +0000)
Marrakech

Weather History for GMMX - January, 2013

Change the Weather History Date:

Wednesday, January 23, 2013

  Actual Average Record
Temperature  
Mean Temperature 52 °F -  
Max Temperature 65 °F 66 °F 80 °F (2016)
Min Temperature 39 °F 44 °F 34 °F (2017)
Degree Days  
Heating Degree Days 13    
Growing Degree Days 2 (Base 50)    
Moisture  
Dew Point 41 °F    
Average Humidity 68    
Maximum Humidity 100    
Minimum Humidity 27    
Precipitation  
Precipitation 0.00 in 0.05 in - ()
Sea Level Pressure  
Sea Level Pressure 30.29 in    
Wind  
Wind Speed 6 mph ()    
Max Wind Speed 13 mph    
Max Gust Speed -    
Visibility 4.7 miles    
Events      
Averages and records for this station are not official NWS values.
T = Trace of Precipitation, MM = Missing Value Source: Averaged Metar Reports

Daily Weather History Graph

Daily Weather History Graph

Search for Another Location

Airport or City:

Trip Planner

Search our weather history database for the weather conditions in past years. The results will help you decide how hot, cold, wet, or windy it might be!

Date:

Astronomy

Jan. 23, 2013 Rise Set
Actual Time 7:29 AM WET 5:58 PM WET
Civil Twilight 7:03 AM WET 6:24 PM WET
Nautical Twilight 6:34 AM WET 6:54 PM WET
Astronomical Twilight 6:05 AM WET 7:23 PM WET
Moon 3:00 PM WET (1/23) 4:27 AM WET (1/23)
Length of Visible Light 11h 20m
Length of Day
10h 28m
Waxing Gibbous, 88% of the Moon is Illuminated
Jan 23
Waxing Gibbous
Jan 27
Full
Feb 3
Last Quarter
Feb 10
New
Feb 17
First Quarter

Hourly Weather History & Observations

Time (WET) Temp. Windchill Dew Point Humidity Pressure Visibility Wind Dir Wind Speed Gust Speed Precip Events Conditions
12:00 AM 47 °F - 42 °F 77% 30.30 in 4 mi ESE 5.8 mph - -   Partly Cloudy
12:00 AM 46.4 °F 43.5 °F 42.8 °F 87% 30.27 in 4.3 mi ESE 5.8 mph - N/A   Scattered Clouds
2:00 AM 46.4 °F 44.3 °F 42.8 °F 87% 30.27 in 4.3 mi North 4.6 mph - N/A   Scattered Clouds
2:01 AM 46.4 °F 44.3 °F 42.8 °F 87% 30.27 in 4.3 mi North 4.6 mph - N/A   Scattered Clouds
2:30 AM 44.6 °F 43.1 °F 41.0 °F 87% 30.27 in 3.7 mi NE 3.5 mph - N/A   Scattered Clouds
3:00 AM 43 °F - 40 °F 85% 30.32 in 4 mi ESE 4.6 mph - -   Partly Cloudy
3:00 AM 42.8 °F 39.3 °F 41.0 °F 93% 30.27 in 4.3 mi ESE 5.8 mph - N/A   Scattered Clouds
3:30 AM 41.0 °F 38.0 °F 39.2 °F 93% 30.27 in 4.3 mi ESE 4.6 mph - N/A   Scattered Clouds
4:00 AM 42.8 °F 41.1 °F 41.0 °F 93% 30.27 in 4.3 mi East 3.5 mph - N/A   Scattered Clouds
4:30 AM 41.0 °F 38.0 °F 39.2 °F 93% 30.27 in 3.7 mi East 4.6 mph - N/A   Scattered Clouds
5:00 AM 41.0 °F 39.0 °F 41.0 °F 100% 30.27 in 4.3 mi East 3.5 mph - N/A   Scattered Clouds
5:30 AM 41.0 °F 38.0 °F 41.0 °F 100% 30.27 in 4.3 mi ENE 4.6 mph - N/A   Scattered Clouds
6:00 AM 40 °F - 39 °F 97% 30.34 in 4 mi ENE 6.9 mph - -   Scattered Clouds
6:00 AM 41.0 °F 37.1 °F 39.2 °F 93% 30.27 in 4.3 mi ENE 5.8 mph - N/A   Scattered Clouds
6:30 AM 39.2 °F 33.6 °F 39.2 °F 100% 30.27 in 4.3 mi East 8.1 mph - N/A   Scattered Clouds
7:00 AM 41.0 °F 35.2 °F 39.2 °F 93% 30.30 in 4.3 mi ESE 9.2 mph - N/A   Scattered Clouds
7:30 AM 42.8 °F 40.1 °F 39.2 °F 87% 30.30 in 4.3 mi SE 4.6 mph - N/A   Mostly Cloudy
8:00 AM 42.8 °F 40.1 °F 39.2 °F 87% 30.30 in 3.7 mi East 4.6 mph - N/A   Mostly Cloudy
8:30 AM 46.4 °F 44.3 °F 41.0 °F 81% 30.30 in 3.7 mi East 4.6 mph - N/A   Partly Cloudy
9:00 AM 49 °F - 43 °F 72% 30.35 in 4 mi East 4.6 mph - -   Scattered Clouds
9:00 AM 48.2 °F - 42.8 °F 82% 30.33 in 3.7 mi East 4.6 mph - N/A   Partly Cloudy
9:30 AM 51.8 °F - 42.8 °F 71% 30.33 in 3.1 mi NE 3.5 mph - N/A   Partly Cloudy
10:00 AM 53.6 °F - 44.6 °F 72% 30.33 in 4.3 mi ENE 4.6 mph - N/A   Partly Cloudy
10:30 AM 57.2 °F - 44.6 °F 63% 30.33 in 5.0 mi ENE 5.8 mph - N/A   Partly Cloudy
11:00 AM 59.0 °F - 44.6 °F 59% 30.33 in 5.0 mi NE 8.1 mph - N/A   Partly Cloudy
11:30 AM 60.8 °F - 42.8 °F 52% 30.33 in 5.0 mi NE 8.1 mph - N/A   Partly Cloudy
12:00 PM 62 °F - 42 °F 35% 30.30 in 6 mi NE 8.1 mph - -   Scattered Clouds
12:00 PM 62.6 °F - 41.0 °F 45% 30.33 in 5.6 mi NE 6.9 mph - N/A   Partly Cloudy
12:30 PM 62.6 °F - 39.2 °F 42% 30.30 in 6.2 mi ENE 11.5 mph - N/A   Partly Cloudy
1:00 PM 62.6 °F - 39.2 °F 42% 30.30 in 6.2 mi NE 10.4 mph - N/A   Partly Cloudy
1:30 PM 62.6 °F - 41.0 °F 45% 30.27 in 5.6 mi ENE 11.5 mph - N/A   Partly Cloudy
2:00 PM 64.4 °F - 41.0 °F 42% 30.27 in 5.6 mi NE 11.5 mph - N/A   Partly Cloudy
2:30 PM 64.4 °F - 39.2 °F 40% 30.27 in 5.6 mi ENE 11.5 mph - N/A   Partly Cloudy
3:00 PM 64 °F - 38 °F 27% 30.24 in 6 mi East 12.7 mph - -   Scattered Clouds
3:00 PM 64.4 °F - 37.4 °F 37% 30.27 in 5.6 mi ENE 12.7 mph - N/A   Partly Cloudy
3:30 PM 64.4 °F - 39.2 °F 40% 30.27 in 5.6 mi ENE 12.7 mph - N/A   Partly Cloudy
4:00 PM 64.4 °F - 41.0 °F 42% 30.27 in 5.6 mi ENE 12.7 mph - N/A   Partly Cloudy
4:30 PM 64.4 °F - 39.2 °F 40% 30.27 in 5.6 mi NE 12.7 mph - N/A   Partly Cloudy
5:00 PM 62.6 °F - 39.2 °F 42% 30.27 in 5.6 mi NE 11.5 mph - N/A   Partly Cloudy
5:30 PM 62.6 °F - 39.2 °F 42% 30.27 in 5.6 mi ENE 11.5 mph - N/A   Partly Cloudy
6:00 PM 59 °F - 38 °F 34% 30.27 in 6 mi ENE 10.4 mph - -   Scattered Clouds
6:00 PM 59.0 °F - 37.4 °F 45% 30.27 in 5.6 mi ENE 10.4 mph - N/A   Partly Cloudy
6:30 PM 57.2 °F - 39.2 °F 51% 30.27 in 5.6 mi ENE 9.2 mph - N/A   Partly Cloudy
7:00 PM 53.6 °F - 39.2 °F 58% 30.27 in 5.0 mi ENE 5.8 mph - N/A   Partly Cloudy
7:30 PM 53.6 °F - 39.2 °F 58% 30.27 in 5.0 mi ENE 5.8 mph - N/A   Partly Cloudy
8:00 PM 51.8 °F - 39.2 °F 62% 30.30 in 4.3 mi East 5.8 mph - N/A   Partly Cloudy
8:30 PM 50.0 °F - 41.0 °F 71% 30.30 in 4.3 mi East 6.9 mph - N/A   Partly Cloudy
9:00 PM 48 °F - 40 °F 66% 30.32 in 4 mi ESE 6.9 mph - -  
9:00 PM 50.0 °F - 41.0 °F 71% 30.30 in 4.3 mi ESE 6.9 mph - N/A   Unknown
9:30 PM 48.2 °F - 41.0 °F 76% 30.30 in 4.3 mi ESE 8.1 mph - N/A   Unknown
10:00 PM 46.4 °F 42.4 °F 41.0 °F 81% 30.30 in 4.3 mi East 8.1 mph - N/A   Unknown
10:30 PM 46.4 °F 43.5 °F 42.8 °F 87% 30.30 in 4.3 mi East 5.8 mph - N/A   Unknown
11:00 PM 46.4 °F - 41.0 °F 81% 30.27 in 4.3 mi East 2.3 mph - N/A   Unknown
11:30 PM 46.4 °F - 41.0 °F 81% 30.27 in 4.3 mi ENE 2.3 mph - N/A   Unknown